Location: ???????????
(55.5758°N, 38.4970°E)
Time: 17:11:25
(UTC+00:00)

Cosmos 1727 Rocket - Pass Details

Date: 15 November 2025
Orbit: 961 x 995 km, 82.9° (Epoch: 14 December)

Event Time Altitude Azimuth Distance (km) Brightness Sun altitude
Exits shadow 01:07:37 60° 22° (NNE) 1,113 4.3 -32.4°
Drops below altitude 10° 01:12:41 10° 13° (NNE) 2,749 6.6 -31.7°
Sets 01:15:13 0° 12° (NNE) 3,706 7.3 -31.4°
